This is the latest recevied weather packets stored in our database for station/object KD4EG. If no packets are shown the sender has not sent any weather packets the latest 10 day(s).
| Time | Temp. | Humidity | Pressure | Rain* | Wind** | Luminosity | Snow |
|---|---|---|---|---|---|---|---|
| 1788479226 | 31.67° C | 63% | 1018.1 hPa | 0 mm | - | 2 W/m² | - |
| 1788478923 | 31.67° C | 64% | 1018 hPa | 0 mm | - | 3 W/m² | - |
| 1788478618 | 32.22° C | 61% | 1018.1 hPa | 0 mm | - | 7 W/m² | - |
| 1788478314 | 32.22° C | 62% | 1017.8 hPa | 0 mm | - | 10 W/m² | - |
| 1788478007 | 32.22° C | 63% | 1017.6 hPa | 0 mm | - | 13 W/m² | - |
| 1788477704 | 32.78° C | 61% | 1018 hPa | 0 mm | - | 16 W/m² | - |
| 1788477403 | 33.33° C | 59% | 1018.1 hPa | 0 mm | - | 20 W/m² | - |
| 1788477097 | 33.33° C | 58% | 1017.7 hPa | 0 mm | - | 24 W/m² | - |
| 1788476793 | 33.33° C | 58% | 1017.7 hPa | 0 mm | - | 28 W/m² | - |
| 1788476492 | 33.89° C | 57% | 1017.6 hPa | 0 mm | - | 34 W/m² | - |
| 1788476189 | 33.89° C | 56% | 1017.7 hPa | 0 mm | - | 38 W/m² | - |
| 1788475885 | 33.89° C | 56% | 1017.5 hPa | 0 mm | - | 43 W/m² | - |
| 1788475581 | 33.89° C | 56% | 1017.7 hPa | 0 mm | - | 48 W/m² | - |
| 1788475278 | 33.89° C | 55% | 1017.5 hPa | 0 mm | - | 56 W/m² | - |
| 1788474988 | 34.44° C | 54% | 1017.5 hPa | 0 mm | - | 65 W/m² | - |
| 1788474671 | 33.89° C | 55% | 1017.6 hPa | 0 mm | - | 73 W/m² | - |
| 1788474366 | 33.33° C | 55% | 1017.8 hPa | 0 mm | - | 52 W/m² | - |
| 1788474065 | 33.89° C | 55% | 1017.6 hPa | 0 mm | - | 41 W/m² | - |
| 1788473760 | 33.89° C | 55% | 1017.6 hPa | 0 mm | - | 45 W/m² | - |
| 1788473458 | 33.89° C | 54% | 1017.8 hPa | 0 mm | - | 50 W/m² | - |
| 1788473157 | 33.89° C | 54% | 1018 hPa | 0 mm | - | 69 W/m² | - |
| 1788472856 | 33.89° C | 54% | 1017.7 hPa | 0 mm | - | 45 W/m² | - |
| 1788472556 | 33.89° C | 54% | 1017.7 hPa | 0 mm | - | 53 W/m² | - |
| 1788472250 | 33.89° C | 54% | 1018.1 hPa | 0 mm | - | 48 W/m² | - |
| 1788471950 | 34.44° C | 54% | 1018 hPa | 0 mm | - | 55 W/m² | - |
* Rain latest hour (hover to see other rain measurements)
** Current wind speed in m/s (hover to see current wind gust speed)